Regional Weather Roundup
Issued by NWS

Home | Current Version | Previous Version | Graphics & Text | Print | Product List | Glossary On
Versions: 1 2 3 4 5 6 7 8 9 10 11 12 13 14 15 16 17 18 19 20 21 22 23 24 25 26 27 28 29 30 31 32 33 34 35 36 37 38 39 40 41 42 43 44 45 46 47 48 49 50
000
ASUS43 KOAX 271102
RWRNE

WEATHER ROUNDUP FOR NEBRASKA
NATIONAL WEATHER SERVICE OMAHA NE
600 AM CDT MON APR 27 2015

NOTES: SATELLITE DATA IS BEING USED TO AUGMENT CLOUD COVER ABOVE
       12000 FEET.
       "FAIR" INDICATES FEW OR NO CLOUDS BELOW 12,000 FEET WITH NO
       SIGNIFICANT WEATHER AND/OR OBSTRUCTIONS TO VISIBILITY.

  * THESE STATIONS DO NOT REPORT WEATHER SUCH AS RAIN...SNOW OR FOG.

NEZ001>004-019>022-054>056-271200-
NEBRASKA PANHANDLE

CITY           SKY/WX    TMP DP  RH WIND       PRES   REMARKS
SCOTTSBLUFF    CLOUDY    44  32  62 NE5       30.18R
ALLIANCE       CLOUDY    43  40  89 CALM      30.18R
CHADRON        CLOUDY    43  40  89 SW3       30.19R
KIMBALL        CLOUDY    40  40  99 E3        30.14F FOG
SIDNEY         CLOUDY    42  40  92 N6        30.17R FOG
$$

NEZ057>060-069>072-079>082-271200-
SOUTHWEST NEBRASKA

CITY           SKY/WX    TMP DP  RH WIND       PRES   REMARKS
IMPERIAL       CLOUDY    45  41  86 E6        30.16R
LEXINGTON      CLEAR     33  32  96 NW3       30.18R FOG
MCCOOK         MOCLDY    39  35  86 N5        30.15R
OGALLALA       CLOUDY    46  43  88 NE3       30.17R
$$

NEZ005>010-023>029-035>040-094-271200-
NORTH CENTRAL NEBRASKA

CITY           SKY/WX    TMP DP  RH WIND       PRES   REMARKS
VALENTINE      CLEAR     30  27  88 W6        30.18R WCI  24
AINSWORTH      CLEAR     37  32  84 W3        30.18R
BROKEN BOW     CLEAR     34  30  85 N5        30.17R WCI  30
O`NEILL        CLEAR     37  31  79 W6        30.18R WCI  33
ORD            CLEAR     32  29  88 CALM      30.17R
$$

NEZ041-046>049-061>064-073>077-083>087-271200-
SOUTH CENTRAL NEBRASKA

CITY           SKY/WX    TMP DP  RH WIND       PRES   REMARKS
GRAND ISLAND   CLEAR     36  32  85 CALM      30.17R
AURORA         CLEAR     37  35  92 N6        30.16R WCI  32
HASTINGS       CLEAR     37  33  85 N5        30.16R WCI  33
HEBRON         MOCLDY    36  33  88 CALM      30.14R
HOLDREGE       PTCLDY    35  32  90 N3        30.16R
KEARNEY *      CLEAR     36  32  87 NW5       30.17R WCI  32
YORK           CLEAR     36  34  93 NE7       30.16R WCI  30
$$

NEZ011>018-030>034-042>045-271200-
NORTHEAST NEBRASKA

CITY           SKY/WX    TMP DP  RH WIND       PRES   REMARKS
NORFOLK        PTCLDY    36  32  85 CALM      30.17R
ALBION         PTCLDY    32  29  89 CALM      30.18R
BLAIR          PTCLDY    42  32  69 N8        30.15S
COLUMBUS *     PTCLDY    39  30  70 CALM      30.18R
FREMONT        PTCLDY    39  35  87 CALM      30.17R
TEKAMAH        PTCLDY    38  33  82 N7        30.17R WCI  33
WAYNE          PTCLDY    32  28  85 CALM      30.18R
$$

NEZ050>053-065>068-078-088>093-271200-
SOUTHEAST NEBRASKA

CITY           SKY/WX    TMP DP  RH WIND       PRES   REMARKS
LINCOLN        CLEAR     34  31  88 N3        30.17R
OMAHA EPPLEY   PTCLDY    38  35  89 N8        30.17R WCI  32
BEATRICE       FAIR      38  33  83 NE3       30.14R
FALLS CITY     MOCLDY    43  32  65 N3        30.12R
NEBRASKA CITY  CLEAR     41  30  65 N3        30.14S
PLATTSMOUTH    CLEAR     38  33  81 N3        30.15S
$$

NEZ044-045-051>053-067-271200-
OMAHA AREA

CITY           SKY/WX    TMP DP  RH WIND       PRES   REMARKS
OMAHA EPPLEY   PTCLDY    38  35  89 N8        30.17R WCI  32
BLAIR          PTCLDY    42  32  69 N8        30.15S
FREMONT        PTCLDY    39  35  87 CALM      30.17R
MILLARD        CLEAR     40  35  83 CALM      30.16R
OFFUTT AFB     PTCLDY    36  33  88 NW6       30.15R WCI  31
PLATTSMOUTH    CLEAR     38  33  81 N3        30.15S
WAHOO          FAIR      38  34  82 N7        30.16S WCI  33
$$


USA.gov is the U.S. government's official web portal to all federal, state and local government web resources and services.